TimeCST,TemperatureF,Dew PointF,Humidity,Sea Level PressureIn,VisibilityMPH,Wind Direction,Wind SpeedMPH,Gust SpeedMPH,PrecipitationIn,Events,Conditions,WindDirDegrees,DateUTC
12:54 AM,37.0,30.9,79,30.09,10.0,East,9.2,-,N/A,,Overcast,100,2012-12-09 06:54:00
1:54 AM,36.0,30.9,82,30.09,10.0,ESE,9.2,-,0.00,Rain-Snow,Light Rain,120,2012-12-09 07:54:00
2:39 AM,33.8,32.0,93,30.05,4.0,East,6.9,-,0.02,Snow,Light Snow,90,2012-12-09 08:39:00
2:54 AM,34.0,32.0,92,30.06,3.0,East,8.1,-,0.03,Snow,Light Snow,100,2012-12-09 08:54:00
3:54 AM,34.0,32.0,92,30.03,2.5,East,11.5,-,0.03,Snow,Light Snow,100,2012-12-09 09:54:00
4:21 AM,33.8,32.0,93,30.00,6.0,East,8.1,-,0.00,Snow,Light Snow,100,2012-12-09 10:21:00
4:54 AM,34.0,33.1,96,30.02,10.0,East,9.2,17.3,0.00,,Overcast,90,2012-12-09 10:54:00
5:54 AM,35.1,33.1,92,30.01,8.0,East,10.4,-,N/A,,Overcast,80,2012-12-09 11:54:00
6:54 AM,35.1,33.1,92,30.00,8.0,East,10.4,-,N/A,,Overcast,90,2012-12-09 12:54:00
7:54 AM,36.0,34.0,93,29.98,8.0,ENE,8.1,-,N/A,,Overcast,70,2012-12-09 13:54:00
8:54 AM,37.0,35.1,93,29.96,4.0,NE,10.4,-,0.00,Rain,Light Rain,50,2012-12-09 14:54:00
9:21 AM,37.4,35.6,93,29.92,2.5,ENE,11.5,-,0.02,Rain,Light Rain,60,2012-12-09 15:21:00
9:45 AM,37.4,35.6,93,29.92,2.5,ENE,10.4,-,0.05,Rain,Light Rain,70,2012-12-09 15:45:00
9:48 AM,37.4,35.6,93,29.92,2.5,ENE,11.5,-,0.05,Rain,Light Rain,70,2012-12-09 15:48:00
9:54 AM,37.0,35.1,93,29.94,2.5,ENE,9.2,-,0.06,Rain,Light Rain,60,2012-12-09 15:54:00
10:54 AM,37.0,35.1,93,29.90,2.5,ENE,9.2,-,0.03,Rain,Light Rain,70,2012-12-09 16:54:00
11:54 AM,37.0,36.0,96,29.86,1.5,ENE,8.1,-,0.03,Rain,Light Rain,70,2012-12-09 17:54:00
12:18 PM,37.4,37.4,100,29.82,2.5,East,5.8,-,0.00,Rain,Light Rain,80,2012-12-09 18:18:00
12:32 PM,37.4,37.4,100,29.81,1.5,ENE,5.8,-,0.01,Rain,Light Rain,70,2012-12-09 18:32:00
12:54 PM,37.9,37.0,97,29.79,1.5,East,10.4,-,0.01,,Light Drizzle,80,2012-12-09 18:54:00
1:19 PM,39.2,37.4,93,29.78,2.0,East,6.9,-,0.00,,Light Drizzle,80,2012-12-09 19:19:00
1:54 PM,39.0,37.9,96,29.81,2.0,East,3.5,-,0.00,Rain,Light Rain,80,2012-12-09 19:54:00
2:27 PM,39.2,37.4,93,29.78,1.5,East,3.5,-,0.00,Rain,Light Rain,90,2012-12-09 20:27:00
2:54 PM,39.0,37.9,96,29.79,1.5,Calm,Calm,-,0.00,Rain,Light Rain,0,2012-12-09 20:54:00
3:11 PM,39.2,37.4,93,29.77,1.5,Calm,Calm,-,0.00,Rain,Light Rain,0,2012-12-09 21:11:00
3:54 PM,39.0,37.9,96,29.78,1.0,Calm,Calm,-,0.00,Rain,Light Rain,0,2012-12-09 21:54:00
4:54 PM,39.0,39.0,100,29.77,1.0,Calm,Calm,-,0.00,,Light Drizzle,0,2012-12-09 22:54:00
5:54 PM,39.0,37.9,96,29.77,4.0,WSW,5.8,-,0.00,,Light Drizzle,240,2012-12-09 23:54:00
6:31 PM,39.2,37.4,93,29.74,4.0,West,9.2,-,0.00,,Light Drizzle,270,2012-12-10 00:31:00
6:54 PM,37.9,37.0,97,29.76,6.0,West,9.2,-,0.00,,Overcast,280,2012-12-10 00:54:00
7:54 PM,37.9,36.0,93,29.76,10.0,West,11.5,-,N/A,,Overcast,280,2012-12-10 01:54:00
8:45 PM,37.4,35.6,93,29.74,10.0,West,9.2,-,N/A,,Overcast,280,2012-12-10 02:45:00
8:54 PM,37.0,34.0,89,29.76,10.0,WNW,11.5,19.6,N/A,,Overcast,290,2012-12-10 02:54:00
9:54 PM,37.0,34.0,89,29.76,10.0,West,9.2,-,N/A,,Overcast,280,2012-12-10 03:54:00
10:54 PM,36.0,33.1,89,29.76,10.0,West,11.5,-,N/A,,Overcast,280,2012-12-10 04:54:00
11:37 PM,35.6,33.8,93,29.74,9.0,West,16.1,19.6,N/A,,Overcast,260,2012-12-10 05:37:00
11:54 PM,34.0,33.1,96,29.76,7.0,West,15.0,21.9,N/A,,Overcast,270,2012-12-10 05:54:00